Malmstrom AFB, MT

10:41 PM MST on December 04, 2016 (GMT -0700)
Malmstrom AFB

Weather History for KGFA - June, 2013

Change the Weather History Date:

Saturday, June 15, 2013

  Actual Average (KGTF) Record (KGTF)
Temperature  
Mean Temperature 60 °F 60 °F  
Max Temperature 75 °F 73 °F 100 °F (1933)
Min Temperature 45 °F 46 °F 33 °F (1994)
Degree Days  
Heating Degree Days 5 6  
Month to date heating degree days 118  
Since 1 June heating degree days 118  
Since 1 July heating degree days 7653  
Cooling Degree Days 0 1  
Month to date cooling degree days 11  
Year to date cooling degree days 18  
Since 1 June cooling degree days 11  
Growing Degree Days 10 (Base 50)    
Moisture  
Dew Point 35 °F    
Average Humidity 42    
Maximum Humidity 68    
Minimum Humidity 17    
Precipitation  
Precipitation 0.00 in 0.08 in 0.59 in (1926)
Month to date precipitation 1.46  
Year to date precipitation 7.19  
Snow  
Snow 0.00 in 0.00 in T in (2000)
Month to date snowfall 0.3  
Since 1 June snowfall 0.3  
Since 1 July snowfall 63.5  
Snow Depth -    
Sea Level Pressure  
Sea Level Pressure 30.05 in    
Wind  
Wind Speed 13 mph (SW)    
Max Wind Speed 16 mph    
Max Gust Speed 28 mph    
Visibility 10 miles    
Events      
T = Trace of Precipitation, MM = Missing Value Source: NWS Daily Summary

Daily Weather History Graph

Daily Weather History Graph

Search for Another Location

Airport or City:

Trip Planner

Search our weather history database for the weather conditions in past years. The results will help you decide how hot, cold, wet, or windy it might be!

Date:

Astronomy

Jun. 15, 2013 Rise Set
Actual Time 5:26 AM MDT 9:23 PM MDT
Civil Twilight 4:46 AM MDT 10:04 PM MDT
Nautical Twilight 3:50 AM MDT 11:00 PM MDT
Astronomical Twilight 2:22 AM MDT 12:28 AM MDT
Moon 12:31 PM MDT (6/15) 12:37 AM MDT (6/15)
Length of Visible Light 17h 18m
Length of Day
15h 57m
Waxing Crescent, 40% of the Moon is Illuminated
Jun 15
Waxing Crescent
Jun 16
First Quarter
Jun 23
Full
Jun 29
Last Quarter
Jul 8
New

Hourly Weather History & Observations

Time (MDT) Temp. Windchill Dew Point Humidity Pressure Visibility Wind Dir Wind Speed Gust Speed Precip Events Conditions
12:56 AM 46.9 °F - 36.0 °F 66% 30.09 in 10.0 mi South 15.0 mph - N/A   Clear
1:56 AM 50.0 °F - 35.1 °F 57% 30.08 in 10.0 mi SSW 15.0 mph - N/A   Clear
2:56 AM 48.0 °F - 36.0 °F 63% 30.08 in 10.0 mi SSW 13.8 mph - N/A   Clear
3:56 AM 50.0 °F - 35.1 °F 57% 30.07 in 10.0 mi SSW 16.1 mph - N/A   Clear
4:56 AM 46.0 °F 40.2 °F 36.0 °F 68% 30.09 in 10.0 mi SSW 12.7 mph - N/A   Clear
5:56 AM 45.0 °F 38.9 °F 35.1 °F 68% 30.10 in 10.0 mi SSW 12.7 mph - N/A   Clear
6:56 AM 50.0 °F - 37.0 °F 61% 30.07 in 10.0 mi SSW 11.5 mph - N/A   Clear
7:56 AM 55.0 °F - 37.0 °F 51% 30.07 in 10.0 mi SSW 15.0 mph - N/A   Clear
8:56 AM 59.0 °F - 36.0 °F 42% 30.06 in 10.0 mi SW 16.1 mph - N/A   Clear
9:56 AM 61.0 °F - 37.0 °F 41% 30.06 in 10.0 mi SSW 15.0 mph - N/A   Clear
10:56 AM 64.0 °F - 37.0 °F 37% 30.05 in 10.0 mi SSW 15.0 mph 20.7 mph N/A   Clear
11:56 AM 66.0 °F - 35.1 °F 32% 30.06 in 10.0 mi SW 11.5 mph - N/A   Clear
12:56 PM 68.0 °F - 35.1 °F 30% 30.05 in 10.0 mi SW 11.5 mph - N/A   Clear
1:56 PM 70.0 °F - 35.1 °F 28% 30.02 in 10.0 mi South 15.0 mph 23.0 mph N/A   Clear
2:56 PM 73.0 °F - 30.9 °F 21% 30.00 in 10.0 mi SW 13.8 mph 27.6 mph N/A   Clear
4:56 PM 75.0 °F - 30.9 °F 20% 29.98 in 10.0 mi WNW 12.7 mph 18.4 mph N/A   Clear
5:56 PM 75.0 °F - 28.9 °F 18% 29.99 in 10.0 mi West 13.8 mph 17.3 mph N/A   Clear
6:56 PM 73.9 °F - 27.0 °F 18% 29.98 in 10.0 mi WNW 10.4 mph - N/A   Clear
7:56 PM 73.0 °F - 26.1 °F 17% 29.98 in 10.0 mi WNW 9.2 mph - N/A   Clear
8:56 PM 66.9 °F - 37.0 °F 33% 30.01 in 10.0 mi NNW 8.1 mph - N/A   Clear
9:56 PM 63.0 °F - 36.0 °F 37% 30.04 in 10.0 mi NW 4.6 mph - N/A   Clear
10:56 PM 63.0 °F - 35.1 °F 35% 30.06 in 10.0 mi Calm Calm - N/A   Clear
11:56 PM 50.0 °F - 39.9 °F 68% 30.10 in 10.0 mi SSE 4.6 mph - N/A   Clear